Location: La Savane
(18.0962°N, 63.0646°W)
Time: 08:58:50
(UTC+00:00)

Fermi - Pass Details

Date: 29 October 2020
Orbit: 523 x 540 km, 25.6° (Epoch: 26 November)

Event Time Altitude Azimuth Distance (km) Brightness Sun altitude
Rises 22:33:35 0° 259° (WSW) 2,653 9.4 -13.0°
Reaches altitude 10° 22:35:52 10° 262° (W) 1,761 7.9 -13.5°
Maximum altitude 22:39:54 61° 343° (NNW) 595 4.0 -14.5°
Enters shadow 22:42:05 25° 57° (ENE) 1,080 4.8 -15.0°
